INTELSAT 10 (IS-10) 1 26766U 01019A 26069.50953757 -.00000188 00000+0 00000+0 0 9998 2 26766 8.8398 60.2549 0005676 274.3304 133.1816 0.99040532 44607 INTELSAT 902 (IS-902) 1 26900U 01039A 26069.77906993 -.00000281 00000+0 00000+0 0 9993 2 26900 5.8691 72.9792 0004587 277.2785 48.5447 1.00272562 89707 INTELSAT 904 (IS-904) 1 27380U 02007A 26069.78279661 -.00000223 00000+0 00000+0 0 9994 2 27380 6.6738 70.3604 0006586 313.4566 34.9575 1.00272225 50778 DIRECTV 5 (TEMPO 1) 1 27426U 02023A 26069.66428085 -.00000055 00000+0 00000+0 0 9999 2 27426 4.6254 76.5371 0003478 278.8225 302.0071 1.00272242 87131 INTELSAT 905 (IS-905) 1 27438U 02027A 26067.69374378 .00000095 00000+0 00000+0 0 9995 2 27438 6.5009 71.0066 0003104 285.0028 282.9238 1.00272811 50358 GALAXY 3C (G-3C) 1 27445U 02030A 26069.47884610 -.00000151 00000+0 00000+0 0 9994 2 27445 3.4781 79.3666 0001371 22.7387 143.5890 1.00272180 45500 INTELSAT 906 (IS-906) 1 27513U 02041A 26069.72143155 .00000015 00000+0 00000+0 0 9990 2 27513 5.5528 74.1291 0003051 270.1092 148.0051 1.00270695 86046 GALAXY 13 (HORIZONS-1) 1 27954U 03044A 26069.68791759 .00000134 00000+0 00000+0 0 9999 2 27954 1.1636 85.1877 0002244 259.6228 281.1794 1.00269908 45587 INTELSAT 10-02 1 28358U 04022A 26069.36089414 -.00000009 00000+0 00000+0 0 9990 2 28358 0.0159 123.4278 0001260 273.9286 259.5998 1.00274855 79562 DIRECTV 8 1 28659U 05019A 26069.75709798 .00000003 00000+0 00000+0 0 9991 2 28659 0.0102 219.2381 0003564 151.0129 311.6628 1.00272584 76085 GALAXY 28 (G-28) 1 28702U 05022A 26069.78357661 -.00000199 00000+0 00000+0 0 9992 2 28702 3.0448 80.1627 0002331 276.2204 67.0430 1.00270614 50989 GALAXY 16 (G-16) 1 29236U 06023A 26069.62673064 -.00000126 00000+0 00000+0 0 9998 2 29236 0.0366 232.3322 0002737 130.0986 292.4887 1.00273855 71988 DIRECTV 9S 1 29494U 06043A 26069.62629732 -.00000112 00000+0 00000+0 0 9994 2 29494 2.1654 82.1170 0003223 281.4219 289.0149 1.00272426 50398 GALAXY 17 (G-17) 1 31307U 07016B 26069.84340086 -.00000205 00000+0 00000+0 0 9990 2 31307 2.7219 81.1517 0003390 278.2249 27.7537 1.00272283 68818 DIRECTV 10 1 31862U 07032A 26069.78998998 -.00000158 00000+0 00000+0 0 9995 2 31862 0.1473 99.0288 0006793 279.5671 79.4560 0.98339892 44601 INTELSAT 11 (IS-11) 1 32253U 07044B 26069.82823411 -.00000041 00000+0 00000+0 0 9996 2 32253 3.3082 79.8753 0004452 209.5991 15.4287 0.99052072 67477 HORIZONS-2 1 32388U 07063B 26069.84565419 -.00000252 00000+0 00000+0 0 9993 2 32388 2.3475 81.8655 0002725 271.3063 45.9471 1.00269981 66826 DIRECTV 11 1 32729U 08013A 26069.48405433 -.00000124 00000+0 00000+0 0 9995 2 32729 0.0082 276.2105 0000250 94.7346 232.2667 1.00272366 44607 GALAXY 18 (G-18) 1 32951U 08024A 26069.66898056 .00000027 00000+0 00000+0 0 9992 2 32951 0.0179 139.8294 0003030 220.6222 285.7014 1.00272250 44865 INTELSAT 25 (IS-25) 1 33153U 08034A 26069.78270993 -.00000222 00000+0 00000+0 0 9993 2 33153 2.4528 81.5319 0003426 245.9648 91.2296 1.00271659 64705 GALAXY 19 (G-19) 1 33376U 08045A 26069.84088751 -.00000138 00000+0 00000+0 0 9994 2 33376 0.0450 261.1793 0002779 98.1068 14.9252 1.00272292 63916 FM-5 1 35493U 09034A 26069.62924398 -.00000198 00000+0 00000+0 0 9993 2 35493 0.0410 269.8214 0000897 315.2596 83.5724 1.00270636 45652 INTELSAT 14 (IS-14) 1 36097U 09064A 26069.85137422 -.00000272 00000+0 00000+0 0 9999 2 36097 0.0170 126.8272 0002477 227.1784 75.9992 1.00270042 59612 INTELSAT 15 (IS-15) 1 36106U 09067A 26069.73747031 -.00000183 00000+0 00000+0 0 9994 2 36106 0.0182 136.5865 0002414 231.3099 151.1302 1.00271959 40248 DIRECTV 12 1 36131U 09075A 26069.62603731 -.00000102 00000+0 00000+0 0 9998 2 36131 0.0200 352.4387 0000443 51.2203 247.2877 1.00271644 45566 INTELSAT 16 (IS-16) 1 36397U 10006A 26069.86863468 -.00000243 00000+0 00000+0 0 9995 2 36397 0.0161 114.3064 0001989 251.5700 39.1533 1.00271561 58666 XM-5 1 37185U 10053A 26069.69485096 -.00000021 00000+0 00000+0 0 9995 2 37185 0.0685 272.4550 0003489 253.6913 137.1517 1.00270389 56492 INTELSAT 17 (IS-17) 1 37238U 10065B 26069.73073112 .00000000 00000+0 00000+0 0 9990 2 37238 0.0222 200.1469 0002465 163.4428 133.8587 1.00271864 52267 INTELSAT 28 (IS-28) 1 37392U 11016A 26069.88209163 -.00000223 00000+0 00000+0 0 9999 2 37392 1.5511 83.8904 0004633 270.2125 100.2883 1.00273192 52303 INTELSAT 18 (IS-18) 1 37834U 11056A 26069.36294661 .00000054 00000+0 00000+0 0 9995 2 37834 0.0234 247.8626 0001699 120.2567 110.5417 1.00270002 52827 INTELSAT 22 (IS-22) 1 38098U 12011A 26069.73194444 -.00000057 00000+0 00000+0 0 9993 2 38098 0.0158 131.6937 0001689 237.9865 134.3061 1.00271553 6208 INTELSAT 19 (IS-19) 1 38356U 12030A 26069.82182075 .00000000 00000+0 00000+0 0 9995 2 38356 0.0207 151.3623 0002962 209.6540 269.3408 1.00271301 49462 INTELSAT 20 (IS-20) 1 38740U 12043A 26069.73125112 -.00000023 00000+0 00000+0 0 9991 2 38740 0.0200 139.3016 0002388 30.0417 330.7832 1.00271705 49760 INTELSAT 21 (IS-21) 1 38749U 12045A 26069.84877421 -.00000283 00000+0 00000+0 0 9999 2 38749 0.0164 191.7230 0001892 176.2638 48.0755 1.00271098 49538 INTELSAT 23 (IS-23) 1 38867U 12057A 26069.49326338 -.00000283 00000+0 00000+0 0 9990 2 38867 0.0377 254.4812 0000933 110.7220 287.5157 1.00274529 48967 FM-6 1 39360U 13058A 26069.62335064 -.00000015 00000+0 00000+0 0 9995 2 39360 0.0176 143.2125 0003129 46.6852 86.6327 1.00269918 45086 INTELSAT 30 (IS-30) 1 40271U 14062A 26069.65788564 -.00000149 00000+0 00000+0 0 9992 2 40271 0.0133 84.7503 0001536 24.3148 201.0476 1.00270624 5802 DIRECTV 14 1 40333U 14078B 26069.62673064 -.00000124 00000+0 00000+0 0 9996 2 40333 0.0176 132.5403 0000632 359.8724 162.2621 1.00271858 41058 DIRECTV 15 1 40663U 15026A 26069.62595064 -.00000101 00000+0 00000+0 0 9994 2 40663 0.0190 106.6415 0000716 73.6543 110.4572 1.00271526 39473 SKY MEXICO-1 1 40664U 15026B 26069.81172020 -.00000233 00000+0 00000+0 0 9995 2 40664 0.0225 249.0934 0002238 126.0629 6.7238 1.00271206 39460 INTELSAT 34 (IS-34) 1 40874U 15039A 26069.84929421 -.00000284 00000+0 00000+0 0 9996 2 40874 0.0295 276.1381 0000275 207.1129 295.5106 1.00270744 38638 INTELSAT 31 (IS-31) 1 41581U 16035A 26069.55618367 -.00000149 00000+0 00000+0 0 9991 2 41581 0.0384 251.7263 0001747 333.3788 48.2928 1.00268693 35697 INTELSAT 36 (IS-36) 1 41747U 16053A 26069.73125112 .00000000 00000+0 00000+0 0 9991 2 41747 0.0163 118.2030 0001006 220.5763 161.3726 1.00270039 34973 INTELSAT 32E (IS-32E) 1 41945U 17007B 26069.78045661 -.00000268 00000+0 00000+0 0 9993 2 41945 0.0182 140.4324 0000083 108.2125 157.5745 1.00270420 33235 INTELSAT 35E (IS-35E) 1 42818U 17041A 26069.87375326 -.00000236 00000+0 00000+0 0 9990 2 42818 0.0262 246.5013 0002110 109.1374 92.9346 1.00272734 31828 INTELSAT 37E (IS-37E) 1 42950U 17059A 26069.78539661 -.00000139 00000+0 00000+0 0 9992 2 42950 0.0176 165.3724 0002056 194.5182 73.2755 1.00271341 31076 AZERSPACE 2 (IS-38) 1 43632U 18074A 26069.79787667 .00000138 00000+0 00000+0 0 9998 2 43632 0.0163 166.7668 0001370 191.4507 142.5754 1.00271846 27464 HORIZONS-3E 1 43633U 18074B 26069.67985753 -.00000029 00000+0 00000+0 0 9992 2 43633 0.0161 346.6885 0000582 15.1335 220.2408 1.00272665 27356 AT&T T-16 1 44333U 19034A 26069.62638397 -.00000113 00000+0 00000+0 0 9995 2 44333 0.0219 102.2722 0000787 51.6529 138.9885 1.00269837 24641 INTELSAT 39 (IS-39) 1 44476U 19049B 26069.80132979 .00000000 00000+0 00000+0 0 9998 2 44476 0.0212 149.5355 0000631 349.9635 19.3960 1.00270566 24149 GALAXY 30 (G-30) 1 46114U 20056C 26069.69294427 .00000038 00000+0 00000+0 0 9994 2 46114 0.0182 139.5518 0002117 218.9030 294.3571 1.00271651 20304 GALAXY 33 (G-33) 1 54026U 22128A 26069.69129762 .00000080 00000+0 00000+0 0 9993 2 54026 0.0171 128.9314 0001912 230.7451 284.5423 1.00273211 12751 GALAXY 34 (G-34) 1 54027U 22128B 26069.75233199 .00000060 00000+0 00000+0 0 9999 2 54027 0.0090 153.8131 0001524 189.9952 326.4389 1.00273183 12920 GALAXY 31 (G-31) 1 54243U 22153A 26069.69363762 .00000015 00000+0 00000+0 0 9990 2 54243 0.0101 152.8633 0001494 216.9478 287.2502 1.00273054 6144 GALAXY 32 (G-32) 1 54244U 22153B 26068.91516889 .00000000 00000+0 00000+0 0 9999 2 54244 0.0150 138.2743 0003016 224.8677 42.9200 1.00269782 12141 GALAXY 35 (G-35) 1 54741U 22170A 26069.84184085 -.00000161 00000+0 00000+0 0 9991 2 54741 0.0088 157.6039 0001983 197.3842 23.4515 1.00273734 11903 GALAXY 36 (G-36) 1 54742U 22170B 26069.62872398 -.00000184 00000+0 00000+0 0 9994 2 54742 0.0189 205.0982 0002319 200.9122 259.6115 1.00271773 11783 GALAXY 37 (G-37) 1 57493U 23112A 26069.69251094 .00000050 00000+0 00000+0 0 9999 2 57493 0.0198 247.9476 0002077 109.4857 293.2131 1.00271700 9555